HL7101 EGPB-ENBR

Flight info

Callsign HL7101
Flight time 0h 52m
Altitude 27000
Route EGPB DCT WAFIL DCT KOKAL DCT PEPIN DCT MODNI MODN2N ENBR
Aircraft SF50/L-SDFGRWY/L

Departure

Time 2026-05-06 19:44
Airport Sumburgh Airport (EGPB)

Arrival

Time 2026-05-06 20:36
Airport Bergen Airport, Flesland (ENBR)
Time Latitude Longitude Altitude Speed Heading
2026-05-06 19:31 59.87672 -1.28982 37 ft 0 kts 80°
2026-05-06 19:39 59.87672 -1.28979 37 ft 1 kts 127°
2026-05-06 19:39 59.87633 -1.28989 37 ft 10 kts 175°
2026-05-06 19:40 59.87616 -1.28886 37 ft 8 kts 66°
2026-05-06 19:40 59.87618 -1.28888 37 ft 10 kts 235°
2026-05-06 19:40 59.87652 -1.29035 37 ft 17 kts 322°
2026-05-06 19:40 59.87756 -1.29188 37 ft 19 kts 324°
2026-05-06 19:41 59.87850 -1.29328 37 ft 15 kts 323°
2026-05-06 19:41 59.87901 -1.29402 37 ft 1 kts 324°
2026-05-06 19:41 59.87958 -1.29413 37 ft 16 kts 23°
2026-05-06 19:41 59.88059 -1.29272 37 ft 17 kts 31°
2026-05-06 19:42 59.88158 -1.29122 40 ft 17 kts 65°
2026-05-06 19:42 59.88176 -1.28867 37 ft 21 kts 84°
2026-05-06 19:42 59.88194 -1.28565 41 ft 23 kts 84°
2026-05-06 19:42 59.88201 -1.28282 40 ft 15 kts 102°
2026-05-06 19:43 59.88212 -1.28265 40 ft 6 kts 246°
2026-05-06 19:43 59.88210 -1.28284 40 ft 0 kts 265°
2026-05-06 19:43 59.88186 -1.28695 40 ft 64 kts 263°
2026-05-06 19:43 59.88120 -1.29902 161 ft 103 kts 263°
2026-05-06 19:44 59.88034 -1.31499 492 ft 130 kts 262°
2026-05-06 19:44 59.87515 -1.33082 947 ft 155 kts 208°
2026-05-06 19:44 59.86435 -1.33032 1648 ft 165 kts 149°
2026-05-06 19:44 59.85852 -1.31181 2431 ft 165 kts 96°
2026-05-06 19:45 59.86261 -1.29073 3021 ft 172 kts 42°
2026-05-06 19:45 59.87178 -1.27502 3651 ft 176 kts 43°
2026-05-06 19:45 59.87940 -1.25639 4341 ft 176 kts 56°
2026-05-06 19:45 59.88394 -1.23371 4993 ft 181 kts 80°
2026-05-06 19:46 59.88398 -1.20873 5704 ft 183 kts 98°
2026-05-06 19:46 59.88088 -1.18283 6140 ft 195 kts 108°
2026-05-06 19:46 59.88011 -1.15648 6829 ft 192 kts 71°
2026-05-06 19:46 59.88677 -1.13419 7497 ft 189 kts 49°
2026-05-06 19:47 59.89422 -1.11212 8104 ft 191 kts 59°
2026-05-06 19:47 59.89852 -1.08663 8623 ft 201 kts 78°
2026-05-06 19:47 59.90032 -1.05906 9080 ft 213 kts 83°
2026-05-06 19:47 59.90236 -1.02947 9764 ft 207 kts 79°
2026-05-06 19:48 59.90487 -1.00158 10421 ft 207 kts 78°
2026-05-06 19:48 59.90747 -0.97322 10969 ft 209 kts 78°
2026-05-06 19:48 59.91004 -0.94451 11511 ft 212 kts 78°
2026-05-06 19:48 59.91264 -0.91549 12045 ft 214 kts 77°
2026-05-06 19:49 59.91528 -0.88611 12579 ft 216 kts 77°
2026-05-06 19:49 59.91791 -0.85639 13107 ft 219 kts 77°
2026-05-06 19:49 59.92059 -0.82639 13636 ft 221 kts 77°
2026-05-06 19:49 59.92326 -0.79599 14119 ft 223 kts 77°
2026-05-06 19:50 59.92598 -0.76525 14546 ft 227 kts 77°
2026-05-06 19:50 59.92871 -0.73407 14996 ft 230 kts 77°
2026-05-06 19:50 59.93147 -0.70246 15428 ft 233 kts 77°
2026-05-06 19:50 59.93427 -0.67050 15854 ft 236 kts 77°
2026-05-06 19:51 59.93709 -0.63807 16273 ft 238 kts 77°
2026-05-06 19:51 59.93993 -0.60525 16682 ft 242 kts 77°
2026-05-06 19:51 59.94282 -0.57206 17092 ft 244 kts 77°
2026-05-06 19:51 59.94572 -0.53846 17500 ft 247 kts 78°
2026-05-06 19:52 59.94865 -0.50453 17893 ft 250 kts 77°
2026-05-06 19:52 59.95160 -0.47017 18294 ft 253 kts 78°
2026-05-06 19:52 59.95457 -0.43551 18636 ft 255 kts 78°
2026-05-06 19:52 59.95756 -0.40054 18965 ft 257 kts 78°
2026-05-06 19:53 59.96054 -0.36522 19298 ft 259 kts 78°
2026-05-06 19:53 59.96356 -0.32966 19617 ft 261 kts 78°
2026-05-06 19:53 59.96658 -0.29382 19952 ft 263 kts 78°
2026-05-06 19:53 59.96962 -0.25761 20275 ft 265 kts 78°
2026-05-06 19:54 59.97267 -0.22121 20583 ft 267 kts 78°
2026-05-06 19:54 59.97573 -0.18449 20902 ft 269 kts 78°
2026-05-06 19:54 59.97883 -0.14759 21240 ft 269 kts 78°
2026-05-06 19:54 59.98189 -0.11065 21572 ft 270 kts 78°
2026-05-06 19:55 59.98496 -0.07362 21921 ft 270 kts 78°
2026-05-06 19:55 59.98803 -0.03647 22258 ft 271 kts 78°
2026-05-06 19:55 59.99107 0.00070 22588 ft 272 kts 78°
2026-05-06 19:55 59.99308 0.03835 22929 ft 273 kts 86°
2026-05-06 19:56 59.99384 0.07643 23242 ft 274 kts 86°
2026-05-06 19:56 59.99471 0.11451 23570 ft 275 kts 86°
2026-05-06 19:56 59.99571 0.15281 23863 ft 275 kts 85°
2026-05-06 19:56 59.99673 0.19104 24142 ft 276 kts 85°
2026-05-06 19:57 59.99764 0.22938 24431 ft 276 kts 85°
2026-05-06 19:57 59.99857 0.26774 24715 ft 277 kts 85°
2026-05-06 19:57 59.99951 0.30622 24998 ft 277 kts 85°
2026-05-06 19:57 60.00043 0.34471 25281 ft 278 kts 85°
2026-05-06 19:58 60.00134 0.38328 25562 ft 278 kts 85°
2026-05-06 19:58 60.00224 0.42195 25846 ft 279 kts 85°
2026-05-06 19:58 60.00313 0.46062 26129 ft 279 kts 85°
2026-05-06 19:58 60.00401 0.49933 26410 ft 279 kts 84°
2026-05-06 19:59 60.00483 0.53811 26687 ft 280 kts 85°
2026-05-06 19:59 60.00560 0.57699 26982 ft 280 kts 84°
2026-05-06 19:59 60.00659 0.61648 27036 ft 290 kts 84°
2026-05-06 19:59 60.00750 0.65754 27040 ft 301 kts 85°
2026-05-06 20:00 60.00832 0.69989 27045 ft 309 kts 85°
2026-05-06 20:00 60.00921 0.74325 27047 ft 316 kts 85°
2026-05-06 20:00 60.01012 0.78753 27049 ft 322 kts 85°
2026-05-06 20:00 60.01103 0.83265 27048 ft 327 kts 85°
2026-05-06 20:01 60.01193 0.87849 27043 ft 333 kts 85°
2026-05-06 20:01 60.01285 0.92522 27040 ft 339 kts 85°
2026-05-06 20:01 60.01375 0.97273 27038 ft 345 kts 85°
2026-05-06 20:01 60.01465 1.02089 27047 ft 349 kts 85°
2026-05-06 20:02 60.01555 1.06964 27041 ft 353 kts 85°
2026-05-06 20:02 60.01642 1.11877 27037 ft 356 kts 85°
2026-05-06 20:02 60.01730 1.16838 27033 ft 358 kts 85°
2026-05-06 20:02 60.01816 1.21823 27035 ft 360 kts 86°
2026-05-06 20:03 60.01899 1.26841 27032 ft 362 kts 86°
2026-05-06 20:03 60.01982 1.31876 27038 ft 363 kts 86°
2026-05-06 20:03 60.02062 1.36938 27047 ft 365 kts 86°
2026-05-06 20:03 60.02142 1.42025 27039 ft 366 kts 86°
2026-05-06 20:04 60.02220 1.47117 27037 ft 367 kts 86°
2026-05-06 20:04 60.02295 1.52230 27037 ft 368 kts 86°
2026-05-06 20:04 60.02371 1.57353 27038 ft 369 kts 86°
2026-05-06 20:04 60.02445 1.62484 27038 ft 370 kts 86°
2026-05-06 20:05 60.02514 1.67621 27047 ft 370 kts 86°
2026-05-06 20:05 60.02583 1.72763 27042 ft 370 kts 86°
2026-05-06 20:05 60.02651 1.77905 27040 ft 370 kts 86°
2026-05-06 20:05 60.02715 1.83043 27041 ft 369 kts 86°
2026-05-06 20:06 60.02778 1.88166 27044 ft 368 kts 86°
2026-05-06 20:06 60.02837 1.93286 27045 ft 368 kts 86°
2026-05-06 20:06 60.02894 1.98394 27045 ft 367 kts 86°
2026-05-06 20:06 60.02952 2.03499 27051 ft 367 kts 87°
2026-05-06 20:07 60.03006 2.08597 27047 ft 367 kts 87°
2026-05-06 20:07 60.03057 2.13704 27043 ft 367 kts 87°
2026-05-06 20:07 60.03108 2.18797 27041 ft 367 kts 87°
2026-05-06 20:07 60.03156 2.23911 27041 ft 368 kts 87°
2026-05-06 20:08 60.03204 2.29028 27046 ft 368 kts 87°
2026-05-06 20:08 60.03249 2.34151 27050 ft 369 kts 87°
2026-05-06 20:08 60.03291 2.39291 27045 ft 370 kts 87°
2026-05-06 20:08 60.03333 2.44431 27044 ft 370 kts 87°
2026-05-06 20:09 60.03372 2.49576 27044 ft 370 kts 87°
2026-05-06 20:09 60.03409 2.54729 27049 ft 370 kts 88°
2026-05-06 20:09 60.03443 2.59883 27048 ft 370 kts 88°
2026-05-06 20:09 60.03473 2.65031 27038 ft 370 kts 88°
2026-05-06 20:10 60.03503 2.70153 27037 ft 369 kts 88°
2026-05-06 20:10 60.03534 2.75285 27036 ft 367 kts 88°
2026-05-06 20:10 60.03563 2.80429 26633 ft 370 kts 88°
2026-05-06 20:10 60.03586 2.85515 26183 ft 361 kts 88°
2026-05-06 20:11 60.03606 2.90482 25739 ft 353 kts 88°
2026-05-06 20:11 60.03628 2.95379 25303 ft 351 kts 88°
2026-05-06 20:11 60.03647 3.00287 24875 ft 355 kts 88°
2026-05-06 20:11 60.03663 3.05232 24460 ft 357 kts 89°
2026-05-06 20:12 60.03679 3.10210 24046 ft 358 kts 89°
2026-05-06 20:12 60.03687 3.13507 23779 ft 358 kts 89°
2026-05-06 20:12 60.03698 3.18488 23327 ft 357 kts 89°
2026-05-06 20:12 60.03709 3.23452 22843 ft 356 kts 89°
2026-05-06 20:13 60.03717 3.28396 22368 ft 355 kts 89°
2026-05-06 20:13 60.03722 3.33309 21904 ft 353 kts 89°
2026-05-06 20:13 60.03727 3.38219 21446 ft 353 kts 89°
2026-05-06 20:13 60.03730 3.43115 21051 ft 351 kts 89°
2026-05-06 20:14 60.03729 3.47961 21040 ft 349 kts 89°
2026-05-06 20:14 60.03727 3.52824 21050 ft 351 kts 89°
2026-05-06 20:14 60.03725 3.57714 21048 ft 352 kts 89°
2026-05-06 20:14 60.03719 3.62626 21049 ft 354 kts 89°
2026-05-06 20:15 60.03711 3.67586 20742 ft 362 kts 89°
2026-05-06 20:15 60.03704 3.72574 20252 ft 354 kts 89°
2026-05-06 20:15 60.03693 3.77444 19792 ft 347 kts 89°
2026-05-06 20:15 60.03682 3.82285 19341 ft 349 kts 89°
2026-05-06 20:16 60.03670 3.87154 18875 ft 351 kts 89°
2026-05-06 20:16 60.03819 3.91995 18408 ft 347 kts 77°
2026-05-06 20:16 60.04480 3.96590 17912 ft 341 kts 64°
2026-05-06 20:16 60.05577 4.00717 17462 ft 332 kts 51°
2026-05-06 20:17 60.07027 4.04216 17031 ft 322 kts 38°
2026-05-06 20:17 60.08675 4.07200 16612 ft 318 kts 35°
2026-05-06 20:17 60.10307 4.10170 16193 ft 317 kts 36°
2026-05-06 20:17 60.11928 4.13147 15787 ft 315 kts 36°
2026-05-06 20:18 60.13531 4.16071 15354 ft 309 kts 36°
2026-05-06 20:18 60.15114 4.18951 14955 ft 305 kts 37°
2026-05-06 20:18 60.16676 4.21807 14546 ft 303 kts 37°
2026-05-06 20:18 60.18230 4.24652 14153 ft 301 kts 38°
2026-05-06 20:19 60.19770 4.27476 13748 ft 298 kts 38°
2026-05-06 20:19 60.21293 4.30269 13333 ft 295 kts 38°
2026-05-06 20:19 60.22805 4.33044 12943 ft 294 kts 38°
2026-05-06 20:19 60.24310 4.35814 12555 ft 293 kts 38°
2026-05-06 20:20 60.25810 4.38579 12168 ft 291 kts 39°
2026-05-06 20:20 60.27296 4.41317 11785 ft 288 kts 39°
2026-05-06 20:20 60.28761 4.44026 11408 ft 285 kts 39°
2026-05-06 20:20 60.30213 4.46712 11039 ft 282 kts 39°
2026-05-06 20:21 60.31652 4.49380 10665 ft 280 kts 39°
2026-05-06 20:21 60.33077 4.52019 10344 ft 278 kts 39°
2026-05-06 20:21 60.34501 4.54660 10113 ft 274 kts 40°
2026-05-06 20:21 60.35847 4.57195 10069 ft 260 kts 41°
2026-05-06 20:22 60.36939 4.60199 9517 ft 266 kts 59°
2026-05-06 20:22 60.37818 4.63417 8963 ft 258 kts 58°
2026-05-06 20:22 60.38809 4.66350 8576 ft 250 kts 45°
2026-05-06 20:22 60.40174 4.68506 8250 ft 250 kts 27°
2026-05-06 20:23 60.41771 4.69716 8115 ft 240 kts
2026-05-06 20:23 60.43432 4.69947 8106 ft 241 kts 352°
2026-05-06 20:23 60.45061 4.69225 8106 ft 238 kts 339°
2026-05-06 20:23 60.46689 4.68604 8098 ft 241 kts 355°
2026-05-06 20:24 60.48371 4.68656 8102 ft 242 kts 357°
2026-05-06 20:24 60.50054 4.68648 8096 ft 242 kts 356°
2026-05-06 20:24 60.51756 4.68846 7791 ft 250 kts
2026-05-06 20:24 60.53387 4.69959 7388 ft 245 kts 18°
2026-05-06 20:25 60.54973 4.71173 7005 ft 243 kts 17°
2026-05-06 20:25 60.56549 4.72363 6619 ft 241 kts 20°
2026-05-06 20:25 60.57959 4.74245 6220 ft 244 kts 39°
2026-05-06 20:25 60.59232 4.76500 5830 ft 242 kts 38°
2026-05-06 20:26 60.60505 4.78680 5425 ft 234 kts 38°
2026-05-06 20:26 60.61604 4.80949 5010 ft 217 kts 54°
2026-05-06 20:26 60.62299 4.83575 4596 ft 206 kts 63°
2026-05-06 20:26 60.62728 4.86312 4183 ft 204 kts 83°
2026-05-06 20:27 60.62640 4.89104 4095 ft 194 kts 103°
2026-05-06 20:27 60.62105 4.91679 4102 ft 203 kts 124°
2026-05-06 20:27 60.61145 4.93769 4107 ft 202 kts 145°
2026-05-06 20:27 60.59906 4.95039 4102 ft 198 kts 165°
2026-05-06 20:28 60.58582 4.95800 4105 ft 198 kts 166°
2026-05-06 20:28 60.57262 4.96619 4107 ft 199 kts 165°
2026-05-06 20:28 60.55936 4.97426 4107 ft 199 kts 166°
2026-05-06 20:28 60.54606 4.98222 4107 ft 200 kts 166°
2026-05-06 20:29 60.53275 4.99028 4108 ft 200 kts 166°
2026-05-06 20:29 60.51934 4.99834 4028 ft 201 kts 165°
2026-05-06 20:29 60.50602 5.00651 3903 ft 198 kts 163°
2026-05-06 20:29 60.49445 5.02060 3774 ft 192 kts 140°
2026-05-06 20:30 60.48619 5.04153 3651 ft 191 kts 120°
2026-05-06 20:30 60.47971 5.09317 3391 ft 190 kts 101°
2026-05-06 20:30 60.47708 5.11942 3261 ft 189 kts 106°
2026-05-06 20:31 60.47079 5.14252 3108 ft 188 kts 132°
2026-05-06 20:31 60.46079 5.15863 3121 ft 183 kts 154°
2026-05-06 20:31 60.44867 5.16600 3128 ft 183 kts 173°
2026-05-06 20:31 60.43610 5.16984 3044 ft 189 kts 172°
2026-05-06 20:32 60.42293 5.17457 2712 ft 188 kts 171°
2026-05-06 20:32 60.41046 5.17858 2441 ft 175 kts 172°
2026-05-06 20:32 60.39889 5.18263 2200 ft 164 kts 171°
2026-05-06 20:32 60.38795 5.18625 1978 ft 155 kts 172°
2026-05-06 20:33 60.37780 5.18970 1787 ft 137 kts 171°
2026-05-06 20:33 60.36849 5.19286 1579 ft 138 kts 171°
2026-05-06 20:33 60.35908 5.19610 1387 ft 132 kts 171°
2026-05-06 20:33 60.35051 5.19893 1192 ft 116 kts 171°
2026-05-06 20:34 60.34355 5.20141 1033 ft 87 kts 170°
2026-05-06 20:34 60.33799 5.20347 892 ft 78 kts 171°
2026-05-06 20:34 60.33254 5.20506 811 ft 82 kts 172°
2026-05-06 20:34 60.32688 5.20698 701 ft 84 kts 172°
2026-05-06 20:35 60.32115 5.20887 572 ft 82 kts 173°
2026-05-06 20:35 60.31560 5.21076 454 ft 80 kts 171°
2026-05-06 20:35 60.31014 5.21261 345 ft 79 kts 171°
2026-05-06 20:35 60.30472 5.21435 212 ft 79 kts 171°
2026-05-06 20:36 60.29965 5.21603 150 ft 62 kts 173°
2026-05-06 20:36 60.29757 5.21676 141 ft 5 kts 164°
2026-05-06 20:36 60.29715 5.21827 141 ft 19 kts 80°
2026-05-06 20:36 60.29703 5.22014 144 ft 10 kts 164°
2026-05-06 20:37 60.29611 5.22045 147 ft 16 kts 169°
2026-05-06 20:37 60.29487 5.22088 154 ft 19 kts 170°
2026-05-06 20:37 60.29407 5.22163 155 ft 8 kts 83°
2026-05-06 20:37 60.29369 5.22246 159 ft 10 kts 171°
2026-05-06 20:38 60.29290 5.22275 164 ft 13 kts 169°
2026-05-06 20:38 60.29186 5.22312 171 ft 16 kts 170°
2026-05-06 20:38 60.29071 5.22348 171 ft 13 kts 171°
2026-05-06 20:38 60.29038 5.22430 170 ft 3 kts 14°
2026-05-06 20:39 60.29081 5.22401 172 ft 8 kts 352°
2026-05-06 20:39 60.29125 5.22432 175 ft 6 kts 84°
2026-05-06 20:39 60.29125 5.22439 175 ft 0 kts 84°